sat.trackr.live / text

‹ back to catalog

STARLINK-34277

NORAD 64156 · 2025-112L

PAYLOAD ACTIVE UNKNOWN

§ Identity

Operator
Country
US
Launch date
2025-05-27
Launch site
AFWTR
Launch vehicle
Mass (kg)
RCS (m²)

Purposes: comms

External: N2YO · Heavens-Above · Gunter

§ Orbital elements

Epoch: 2026-09-20T14:01:25.893408Z

Period
93.91 min
Inclination
97.2849°
Eccentricity
0.0000900
Mean motion
15.33452784 rev/d
Perigee alt
464.9 km
Apogee alt
466.1 km
Semi-major
6,843.7 km
B*
5.6024e-4
RAAN
310.6927°
Arg perigee
104.6084°
Mean anomaly
255.5259°
Rev number
7,276

§ Raw data

STARLINK-342771 64156U 25112L   26263.58432747  .00018059  00000+0  56024-3 0  99942 64156  97.2849 310.6927 0000900 104.6084 255.5259 15.33452784 72760

JSON: /api/v1/satellites/64156 · /tle

For live sub-satellite position, see the globe view (requires WebGL).

§ Visibility from observer

Set your observer location to see the next 7 days of passes ≥ 10°. The values pass through the URL so the page stays shareable.

No JS? Fill the form by hand. The geolocation button needs JavaScript.